Location: Krakow
(50.0830°N, 19.9170°E)
Time: 14:23:35
(UTC+01:00)

Vanguard 2 - Pass Details

Date: 18 December 2023
Orbit: 553 x 2919 km, 32.9° (Epoch: 24 February)

Event Time Altitude Azimuth Distance (km) Brightness Sun altitude
Rises 21:52:45 0° 270° (W) 6,593 12.6 -56.5°
Reaches altitude 10° 21:57:55 10° 260° (W) 5,704 12.1 -57.1°
Enters shadow 22:06:10 25° 235° (SW) 4,608 11.3 -58.0°
